Weather History for Saranac Lake, NY

Change the Weather History Date:

Sunday, December 1, 2013

  Actual Average Record
Temperature  
Mean Temperature 26 °F 25 °F  
Max Temperature 32 °F 35 °F 57 °F (1991)
Min Temperature 20 °F 16 °F -9 °F (1958)
Degree Days  
Heating Degree Days 39 40  
Month to date heating degree days 39 40  
Since 1 July heating degree days 2425 2315  
Moisture  
Dew Point 25 °F    
Average Humidity 84    
Maximum Humidity 100    
Minimum Humidity 68    
Precipitation  
Precipitation 0.01 in 0.09 in 0.78 in (2006)
Month to date precipitation 0.01 0.09  
Year to date precipitation 38.86 35.32  
Sea Level Pressure  
Sea Level Pressure 30.07 in    
Wind  
Wind Speed 4 mph (ENE)    
Max Wind Speed 12 mph    
Max Gust Speed 16 mph    
Visibility 6 miles    
Events Snow    
T = Trace of Precipitation, MM = Missing Value Source: NWS Daily Summary

Daily Weather History Graph

Daily Weather History Graph

Search for Another Location

Airport:

Trip Planner

Search our weather history database for the weather conditions in past years. The results will help you decide how hot, cold, wet, or windy it might be!

Date:

Astronomy

Dec. 01, 2013 Rise Set
Actual Time 7:13 AM EST 4:18 PM EST
Civil Twilight 6:40 AM EST 4:51 PM EST
Nautical Twilight 6:04 AM EST 5:27 PM EST
Astronomical Twilight 5:29 AM EST 6:02 PM EST
Moon 5:25 AM EST (12/1) 3:29 PM EST (12/1)
Length of Visible Light 10h 11m
Length of Day
9h 05m
Waning Crescent, 2% of the Moon is Illuminated
Dec 1
Waning Crescent
Dec 2
New
Dec 9
First Quarter
Dec 17
Full
Dec 25
Last Quarter

Hourly Weather History & Observations

Time (EST) Temp. Windchill Dew Point Humidity Pressure Visibility Wind Dir Wind Speed Gust Speed Precip Events Conditions
12:51 AM 23.0 °F 12.4 °F 15.1 °F 72% 30.24 in 10.0 mi SW 10.4 mph - N/A   Clear
1:51 AM 23.0 °F 13.9 °F 16.0 °F 74% 30.24 in 10.0 mi WSW 8.1 mph - N/A   Mostly Cloudy
2:51 AM 24.1 °F 15.2 °F 17.1 °F 75% 30.21 in 10.0 mi WSW 8.1 mph - N/A   Clear
3:51 AM 24.1 °F 13.7 °F 18.0 °F 77% 30.19 in 10.0 mi SW 10.4 mph - N/A   Overcast
4:51 AM 25.0 °F 16.3 °F 19.0 °F 78% 30.18 in 10.0 mi SW 8.1 mph - N/A   Overcast
5:51 AM 24.1 °F 15.2 °F 19.0 °F 81% 30.17 in 10.0 mi SW 8.1 mph - N/A   Overcast
6:51 AM 24.1 °F 17.0 °F 19.9 °F 84% 30.17 in 10.0 mi SW 5.8 mph - N/A   Scattered Clouds
7:51 AM 23.0 °F - 21.0 °F 92% 30.17 in 10.0 mi Calm Calm - N/A   Overcast
8:51 AM 21.9 °F - 19.0 °F 89% 30.16 in 10.0 mi Calm Calm - N/A   Overcast
9:51 AM 26.1 °F - 21.9 °F 84% 30.15 in 10.0 mi Calm Calm - N/A   Overcast
10:51 AM 28.9 °F - 23.0 °F 78% 30.13 in 10.0 mi Calm Calm - N/A   Overcast
11:51 AM 30.9 °F - 25.0 °F 79% 30.10 in 10.0 mi Calm Calm - N/A   Overcast
12:51 PM 32.0 °F - 26.1 °F 79% 30.09 in 9.0 mi Calm Calm - N/A   Overcast
1:10 PM 30.2 °F 26.7 °F 26.6 °F 86% 30.02 in 2.5 mi SSW 3.5 mph - 0.00 in Snow Light Snow
1:24 PM 30.2 °F - 26.6 °F 86% 30.01 in 1.5 mi Calm Calm - 0.00 in Snow Light Snow
1:33 PM 30.2 °F 26.7 °F 26.6 °F 86% 30.01 in 2.5 mi SSW 3.5 mph - 0.00 in Snow Light Snow
1:44 PM 30.2 °F - 28.4 °F 93% 30.01 in 1.2 mi Calm Calm - 0.00 in Snow Light Snow
1:51 PM 30.0 °F - 28.0 °F 92% 30.08 in 1.0 mi Calm Calm - 0.00 in Snow Light Snow
2:22 PM 30.2 °F - 28.4 °F 93% 30.00 in 1.2 mi Calm Calm - 0.00 in Snow Light Snow
2:51 PM 30.9 °F - 28.9 °F 92% 30.06 in 1.5 mi Calm Calm - 0.00 in Snow Light Snow
3:06 PM 30.2 °F - 28.4 °F 93% 30.01 in 1.2 mi Calm Calm - 0.00 in Snow Light Snow
3:36 PM 30.2 °F - 28.4 °F 93% 30.00 in 1.0 mi Calm Calm - 0.00 in Snow Light Snow
3:51 PM 30.0 °F 26.5 °F 28.9 °F 96% 30.06 in 1.0 mi ENE 3.5 mph - 0.01 in Snow Light Snow
4:30 PM 30.2 °F 25.4 °F 28.4 °F 93% 30.00 in 2.0 mi ENE 4.6 mph - 0.00 in Snow Light Snow
4:51 PM 28.9 °F 22.8 °F 28.0 °F 96% 30.06 in 2.5 mi ENE 5.8 mph - 0.00 in Snow Light Snow
5:10 PM 28.4 °F 23.3 °F 28.4 °F 100% 29.99 in 3.0 mi ENE 4.6 mph - 0.00 in Snow Light Snow
5:51 PM 28.0 °F 21.7 °F 26.1 °F 92% 30.06 in 5.0 mi NE 5.8 mph - 0.00 in   Overcast
6:51 PM 27.0 °F 21.6 °F 25.0 °F 92% 30.06 in 5.0 mi NE 4.6 mph - 0.00 in   Overcast
7:01 PM 26.6 °F 21.2 °F 26.6 °F 100% 29.99 in 6.0 mi NE 4.6 mph - N/A   Overcast
7:51 PM 28.0 °F 24.2 °F 26.1 °F 92% 30.05 in 6.0 mi ENE 3.5 mph - N/A   Overcast
8:08 PM 28.4 °F 24.6 °F 26.6 °F 93% 29.98 in 6.0 mi ENE 3.5 mph - N/A   Overcast
8:28 PM 28.4 °F 24.6 °F 26.6 °F 93% 29.98 in 6.0 mi ENE 3.5 mph - N/A   Overcast
8:51 PM 28.0 °F 24.2 °F 26.1 °F 92% 30.04 in 6.0 mi NE 3.5 mph - N/A   Overcast
9:51 PM 28.0 °F 24.2 °F 26.1 °F 92% 30.03 in 6.0 mi NE 3.5 mph - N/A   Overcast
10:37 PM 26.6 °F 21.2 °F 26.6 °F 100% 29.95 in 4.0 mi ENE 4.6 mph - 0.00 in   Overcast
10:51 PM 27.0 °F 21.6 °F 26.1 °F 96% 30.01 in 5.0 mi NE 4.6 mph - 0.00 in   Overcast
11:18 PM 26.6 °F 21.2 °F 26.6 °F 100% 29.94 in 5.0 mi NE 4.6 mph - N/A   Overcast
11:51 PM 27.0 °F - 26.1 °F 96% 30.01 in 4.0 mi Calm Calm - N/A   Overcast